Nanjing Lukou Airport
ZSNJ : now visible

Airfield :











YOU CAN JOIN US ON...

 
LOGIN :

Register | Disclaimer

   EN    FR    IT 

 









Legend :    VFR   Marginal VFR   IFR   Intensive IFR   Very Intensive IFR
Visi :
Ceiling :
>= 8 km
>= 3000ft
5 to 8 km
1000 to 3000 ft
1500m to 5 km
500 to 1000 ft
800 to 1500m
200 to 500 ft
< 800m
< 200 ft
Symbols :   Thunderstorms  Fog  Heavy snow  Heavy precipitations  Wind > 20 kt






- Airport Elevation : 49 ft
- IATA code : NKG


ZSNJ - Nanjing Lukou

CURRENT METAR :
  • 210000Z 24002MPS 2000 -RA BR NSC 16/16 Q1021 BECMG TL0130 3000

EXPIRED METARs :
  • 202300Z 26001MPS 2000 -RA BR NSC 15/15 Q1020 BECMG TL0030 3000

TAF TAF ZSNJ
Valid from the 21 at 00:00 until the 22 at 00:00 UTC


202102Z 2100/2124 27003MPS 3000 -RA BR SCT033 TX20/2106Z TN13/2121Z
ZSHA FIR / Asia



MET'MAP, your aeronautical weather chart ! - Copyright ORBIFLY December 2007 - Disclaimer

ORBIFLY MET'MAP TEAM :

Programming & Development : Alexandra Zaïnal
Concept & original design : Baudouin d'Aumeries
Assistance for programming : Marc-Olivier Méhu
Technical & hardware support : Manuel Goepfert

Contact : metmap@orbifly.com




SOURCES & CREDITS :

   NOAA       Earth
Advisory